Hourly Data Report for September 12, 2017

All times are specified in Local Standard Time (LST). Add 1 hour to adjust for Daylight Saving Time where and when it is observed.

PANGNIRTUNG
NUNAVUT

66°08'36.300" N
65°42'40.500" W
22.60 m
2403049
71826
WXP

Download Data

Hourly Data (September 2017)
Hourly Data Report for September 12, 2017
Temp Definition
°C
Dew Point Temp Definition
°C
Rel Hum Definition
%
Wind Dir Definition
10's deg

Wind Spd Definition
km/h
Visibility Definition
km
Stn Press Definition
kPa
Hmdx Definition


Wind Chill Definition


Weather Definition


TIME
00:00 0.7 -2.1 81 11 5   100.37     LegendNANA
01:00 1.0 -2.2 79 11 7   100.32     LegendNANA
02:00 1.0 -1.6 82 11 10   100.26     LegendNANA
03:00 1.2 -2.0 80 13 13   100.22     LegendNANA
04:00 1.9 -2.3 73 15 13   100.15     LegendNANA
05:00 3.4 -3.4 61 8 9   100.11     LegendNANA
06:00 3.4 -2.9 64 9 7   100.07     LegendNANA
07:00 4.7 -3.7 54 7 6   100.07     LegendNANA
08:00 4.8 -2.6 59 9 20   100.06     LegendNANA
09:00 3.8 -0.7 73 14 20   100.06     LegendNANA
10:00 3.7 0.4 79 12 30   99.98     LegendNANA
11:00 3.9 0.7 79 8 18   99.85     LegendNANA
12:00 4.3 1.0 79 9 17   99.81     LegendNANA
13:00 4.0 1.6 84 9 26   99.79     LegendNANA
14:00 3.6 1.7 88 8 20   99.75     LegendNANA
15:00 4.0 0.8 80 8 22   99.72     LegendNANA
16:00 4.0 0.5 78 9 29   99.72     LegendNANA
17:00 3.8 0.2 77 10 30   99.72     LegendNANA
18:00 3.2 0.5 83 9 18   99.75     LegendNANA
19:00 1.8 0.9 94 9 12   99.78     LegendNANA
20:00 1.8 1.0 94 7 15   99.77     LegendNANA
21:00 1.9 0.9 93 8 21   99.76     LegendNANA
22:00 1.9 0.8 93 8 17   99.71     LegendNANA
23:00 2.7 1.0 89 9 24   99.62     LegendNANA

Notes on Data Quality.

Legend

  • E = Estimated
  • M = Missing
  • NA = Not Available
  • ‡ = Partner data that is not subject to review by the National Climate Archives
Date modified: